[[{"header":{"parameterUnit":"m.s-1","parameterCategory":2,"la1":30.2991,"la2":30.254,"lo1":-89.0895,"lo2":-89.0444,"dy":0.0017,"dx":0.0017,"nx":28,"ny":28,"refTime":"2023-11-12T09:00:00:Z","depth":"0","parameterNumber":2,"parameterNumberName":"U-component_of_CURRENTS"},"data":[0,0,0,0,0,0,0,0,0,0,0,0,0,0,0,0,0,0,0,0,0,0,0,0,0,0,0,0,0,0,0,0,0,0,0,0,0,0,0,0,0,0,0,0,0,0,0,0,0,0,0,0,0,0,0,0,0,0,0.2703,0.2703,0,0.2698,0.2697,0.2697,0.2685,0.2685,0.2685,0.2685,0.2667,0.2667,0.2667,0,0,0,0,0,0,0,0,0,0,0,0,0,0.2693,0.2693,0.2703,0.2703,0.2703,0.2698,0.2697,0.2697,0.2685,0.2685,0.2685,0.2685,0.2667,0.2667,0.2667,0,0,0,0,0,0,0,0,0,0,0,0,0,0.2692,0.2693,0.2703,0.2698,0.2697,0.2698,0.2697,0.2697,0.2685,0.2685,0.2685,0.2685,0.2668,0.2667,0.2666,0.2666,0,0,0.2665,0.2664,0,0,0,0,0,0,0,0,0.2692,0.2692,0.2699,0.2698,0.2698,0.2693,0.2688,0.2687,0.2685,0.2688,0.2685,0.2685,0.2676,0.2675,0.2672,0.2665,0.2664,0.2665,0.2664,0.2664,0.2664,0,0,0,0,0,0,0,0.2692,0.2692,0.2699,0.2699,0.2698,0.2692,0.2692,0.2687,0.2681,0.2688,0.2687,0.2689,0.2676,0.2672,0.2671,0.2664,0.2665,0.2664,0.2664,0.2664,0.2692,0.2693,0,0,0,0,0,0,0.2697,0.2692,0.27,0.2699,0.2696,0.2693,0.2692,0.2694,0.2682,0.268,0.2689,0.2689,0.2673,0.2672,0.2671,0.2698,0.2664,0.2664,0.2663,0.2691,0.2692,0.2693,0,0,0,0,0,0,0.2697,0.2698,0.27,0.2697,0.2697,0.2693,0.2695,0.2694,0.2697,0.2683,0.2681,0.2695,0.2673,0.2672,0.2677,0.2696,0.2663,0.2663,0.2689,0.2691,0.2693,0.2733,0,0,0,0,0,0,0.2696,0.2698,0.2699,0.2697,0.2698,0.271,0.2695,0.2694,0.2699,0.2698,0.2688,0.2685,0.2673,0.2678,0.2677,0.2694,0.2662,0.2688,0.269,0.2692,0.2731,0.2736,0.2741,0,0,0,0,0,0.2696,0.2699,0.2699,0.27,0.27,0.2711,0.2711,0.2706,0.2699,0.2707,0.27,0.2686,0.269,0.2679,0.2676,0.2695,0.2687,0.269,0.2692,0.2728,0.2735,0.2741,0,0,0,0,0,0,0.269,0.2698,0.2698,0.2701,0.2712,0.271,0.2715,0.2712,0.2712,0.2711,0.2695,0.2693,0.2708,0.2697,0.2684,0.271,0.2688,0.2691,0.2717,0.2723,0.2728,0.274,0.2662,0,0,0,0,0,0.2691,0.2698,0.2706,0.271,0.2718,0.2718,0.2721,0.2722,0.2722,0.2721,0.2713,0.271,0.2716,0.2715,0.2717,0.2725,0.2736,0.2738,0.2743,0.2748,0.2758,0.2794,0.2804,0.2701,0.2701,0.2701,0,0,0.2688,0.2695,0.2697,0.271,0.2716,0.2727,0.2719,0.2732,0.2741,0.272,0.2727,0.2728,0.2724,0.2738,0.2744,0.273,0.2784,0.2751,0.2754,0.2762,0.2798,0.2808,0.2817,0.2703,0.2703,0.2702,0,0,0.2689,0.2697,0.2704,0.2715,0.2732,0.2738,0.2745,0.2752,0.2757,0.2767,0.276,0.2776,0.2769,0.2779,0.2781,0.2816,0.2813,0.2814,0.2845,0.2881,0.289,0.2898,0.2928,0.2938,0.2813,0.2813,0.2813,0,0.2686,0.2698,0.2709,0.272,0.2731,0.2745,0.2758,0.2769,0.2775,0.2786,0.2775,0.2798,0.2793,0.2824,0.2837,0.2829,0.2846,0.282,0.2888,0.2896,0.2904,0.2933,0.2944,0.2815,0.2815,0.2815,0.2815,0,0.2691,0.2706,0.2714,0.2736,0.2747,0.2766,0.2784,0.28,0.2807,0.2818,0.2851,0.2853,0.2868,0.2872,0.2863,0.2915,0.2909,0.2894,0.2872,0.2917,0.2944,0.2955,0.2819,0.2818,0.2817,0.2817,0,0,0.267,0.2712,0.2713,0.2729,0.276,0.2769,0.2798,0.2831,0.2861,0.287,0.2908,0.2923,0.2933,0.2938,0.2937,0.2966,0.3031,0.2953,0.2954,0.2983,0.3113,0.309,0.3099,0.3028,0.303,0.3031,0.3112,0,0.2675,0.2699,0.2721,0.2748,0.2764,0.2793,0.2821,0.285,0.2883,0.2925,0.2945,0.2981,0.2956,0.2976,0.3001,0.3032,0.3061,0.3011,0.3066,0.3068,0.3042,0.3111,0.3007,0.3069,0.3122,0.3124,0.3125,0,0.2665,0.2689,0.2712,0.2763,0.2774,0.2791,0.2847,0.2881,0.2946,0.2975,0.3016,0.3037,0.3089,0.3059,0.313,0.31,0.3111,0.3126,0.3129,0.3102,0.3065,0.3033,0.3086,0.3034,0.3141,0.314,0.3139,0,0.2629,0.2679,0.27,0.2713,0.2771,0.2789,0.2826,0.2888,0.2928,0.3018,0.3062,0.3115,0.3159,0.3183,0.3211,0.3179,0.329,0.3245,0.3234,0.3232,0.3152,0.314,0.316,0.3296,0.3295,0.3295,0.3295,0,0.2615,0.2631,0.2686,0.2693,0.2726,0.2774,0.2825,0.2876,0.2959,0.3009,0.3087,0.3136,0.3196,0.3255,0.3254,0.3291,0.3325,0.3263,0.3261,0.3163,0.3151,0.3107,0.3075,0.3298,0.3298,0.3297,0.3296,0,0.2561,0.26,0.2624,0.2685,0.2704,0.2723,0.2804,0.2845,0.2948,0.3019,0.305,0.3175,0.3263,0.3318,0.3383,0.3357,0.33,0.3383,0.3266,0.3249,0.316,0.3134,0.3031,0.2925,0.338,0.338,0.338,0,0.2533,0.2542,0.2595,0.2607,0.2632,0.2679,0.2708,0.2811,0.2861,0.3021,0.3048,0.3186,0.3263,0.3386,0.3387,0.3419,0.3303,0.3319,0.3232,0.3167,0.3137,0.2998,0.2905,0.3144,0.3142,0.314,0.3139,0,0.2485,0.2503,0.2524,0.2546,0.2569,0.2603,0.2662,0.2695,0.282,0.29,0.302,0.311,0.3267,0.3279,0.3348,0.3336,0.3167,0.3286,0.325,0.299,0.281,0.2702,0.3081,0.3125,0.3126,0.3127,0.3128,0.3129,0.2444,0.244,0.2464,0.2477,0.2499,0.2511,0.2508,0.2585,0.2646,0.2734,0.2893,0.2997,0.3127,0.3225,0.3201,0.3136,0.3082,0.3034,0.3021,0.2897,0.2746,0.3101,0.3121,0.3123,0.3124,0.3125,0.3126,0,0.238,0.2383,0.2396,0.2392,0.2374,0.242,0.2456,0.2438,0.2457,0.259,0.2685,0.2845,0.2896,0.2984,0.3018,0.2908,0.2733,0.2815,0.2601,0.253,0.2889,0.2833,0.2754,0.2754,0.2754,0.2754,0.2754,0.2754,0.2346,0.2323,0.2324,0.2263,0.2261,0.2202,0.2197,0.2192,0.2258,0.2331,0.2431,0.2564,0.2814,0.291,0.2862,0.2773,0.2537,0.241,0.2381,0.2669,0.2688,0.2705,0.2646,0.2529,0.2529,0.1899,0.1895,0.1891]},{"header":{"parameterUnit":"m.s-1","parameterCategory":2,"la1":30.2991,"la2":30.254,"lo1":-89.0895,"lo2":-89.0444,"dy":0.0017,"dx":0.0017,"nx":28,"ny":28,"refTime":"2023-11-12T09:00:00:Z","depth":"0","parameterNumber":3,"parameterNumberName":"V-component_of_CURRENTS"},"data":[0,0,0,0,0,0,0,0,0,0,0,0,0,0,0,0,0,0,0,0,0,0,0,0,0,0,0,0,0,0,0,0,0,0,0,0,0,0,0,0,0,0,0,0,0,0,0,0,0,0,0,0,0,0,0,0,0,0,-0.0031,-0.0031,0,-0.0085,-0.0086,-0.0087,-0.0125,-0.0125,-0.0125,-0.0125,-0.0206,-0.0207,-0.0209,0,0,0,0,0,0,0,0,0,0,0,0,0,0.0007,0.0007,-0.0031,-0.0031,-0.0032,-0.0085,-0.0086,-0.0087,-0.0125,-0.0125,-0.0125,-0.0125,-0.0205,-0.0207,-0.021,0,0,0,0,0,0,0,0,0,0,0,0,0,-0.0026,0.0006,-0.0031,-0.0056,-0.0059,-0.0085,-0.0086,-0.0087,-0.0125,-0.0125,-0.0125,-0.0125,-0.0204,-0.0207,-0.021,-0.0223,0,0,-0.0219,-0.022,0,0,0,0,0,0,0,0,-0.0024,-0.0027,-0.0052,-0.0055,-0.0058,-0.0097,-0.0102,-0.0133,-0.0124,-0.0101,-0.0125,-0.0126,-0.0171,-0.0177,-0.0187,-0.0226,-0.023,-0.0219,-0.0221,-0.0222,-0.0223,0,0,0,0,0,0,0,-0.0021,-0.0025,-0.0054,-0.0053,-0.0056,-0.0077,-0.0081,-0.0108,-0.0135,-0.0103,-0.0106,-0.011,-0.0173,-0.0185,-0.019,-0.0231,-0.0219,-0.0222,-0.0224,-0.0225,-0.0279,-0.0279,0,0,0,0,0,0,-0.001,-0.0023,-0.0052,-0.0055,-0.004,-0.0077,-0.0082,-0.0085,-0.0134,-0.0142,-0.0109,-0.0111,-0.0179,-0.0186,-0.0193,-0.0198,-0.0222,-0.0225,-0.0227,-0.028,-0.0279,-0.0279,0,0,0,0,0,0,-0.0009,-0.0012,-0.005,-0.0039,-0.0045,-0.0077,-0.008,-0.0086,-0.0095,-0.0139,-0.0147,-0.0112,-0.018,-0.0189,-0.0211,-0.0202,-0.0226,-0.0229,-0.028,-0.028,-0.0279,-0.0218,0,0,0,0,0,0,-0.0008,-0.0012,-0.0009,-0.0039,-0.0046,-0.0059,-0.008,-0.0087,-0.0097,-0.01,-0.0143,-0.0151,-0.0181,-0.0206,-0.0214,-0.0207,-0.0231,-0.028,-0.028,-0.0279,-0.022,-0.0215,-0.0211,0,0,0,0,0,-0.0006,0.0001,-0.0008,-0.0012,-0.0041,-0.0058,-0.0064,-0.0088,-0.0097,-0.0098,-0.0125,-0.015,-0.0208,-0.0208,-0.0217,-0.0211,-0.0281,-0.028,-0.0279,-0.0222,-0.0216,-0.0211,0,0,0,0,0,0,0.0019,-0.0003,-0.0014,-0.0013,-0.0032,-0.0064,-0.0065,-0.0082,-0.0105,-0.0105,-0.0147,-0.0157,-0.0173,-0.02,-0.02,-0.0225,-0.0248,-0.0249,-0.0201,-0.0196,-0.0192,-0.0171,-0.0234,0,0,0,0,0,0.0027,0.0027,0.0001,0.0001,-0.0004,-0.0033,-0.0042,-0.0057,-0.0082,-0.0092,-0.0123,-0.0153,-0.0178,-0.0192,-0.0219,-0.0234,-0.026,-0.0236,-0.0231,-0.0227,-0.0217,-0.0248,-0.0245,-0.0277,-0.0277,-0.0277,0,0,0.0036,0.0025,0.0024,0.0007,-0.0009,-0.0007,-0.004,-0.0046,-0.0046,-0.0097,-0.0106,-0.0139,-0.0178,-0.0193,-0.0202,-0.0214,-0.0233,-0.0226,-0.0222,-0.0214,-0.0246,-0.0243,-0.0241,-0.0276,-0.0276,-0.0276,0,0,0.006,0.0047,0.0057,0.0047,0.0031,0.0015,0.0017,-0.0011,-0.0024,-0.004,-0.0072,-0.0096,-0.0139,-0.0162,-0.0179,-0.0166,-0.0207,-0.0177,-0.0139,-0.0169,-0.0166,-0.0164,-0.0196,-0.0197,-0.0175,-0.0175,-0.0175,0,0.0074,0.0082,0.0057,0.0066,0.0067,0.003,0.0046,0.0026,-0.0005,-0.0009,-0.0034,-0.0086,-0.0122,-0.0134,-0.0131,-0.0154,-0.0179,-0.0155,-0.0162,-0.016,-0.016,-0.0192,-0.0195,-0.0172,-0.0172,-0.0173,-0.0173,0,0.0106,0.0113,0.012,0.0121,0.0117,0.0124,0.01,0.0093,0.0071,0.005,0.0029,-0.0024,-0.0051,-0.0071,-0.0099,-0.0107,-0.0129,-0.0151,-0.0173,-0.0152,-0.0189,-0.0192,-0.0168,-0.0169,-0.017,-0.0171,0,0,0.0141,0.0143,0.0146,0.0158,0.015,0.0152,0.0157,0.0152,0.0164,0.0116,0.0122,0.0066,0.0037,0.0015,-0.0027,-0.0058,-0.008,-0.0097,-0.01,-0.0122,-0.0148,-0.0148,-0.0153,-0.0104,-0.0104,-0.0104,-0.0177,0,0.0176,0.021,0.0199,0.0231,0.025,0.0226,0.0237,0.0227,0.0209,0.0204,0.0144,0.0129,0.0069,0.0058,0.0018,-0.0049,-0.0086,-0.0058,-0.0169,-0.0173,-0.017,-0.0155,-0.0126,-0.0187,-0.0181,-0.0181,-0.0182,0,0.0219,0.0235,0.0278,0.0296,0.0302,0.0316,0.0337,0.034,0.0323,0.0307,0.0277,0.0229,0.0182,0.0125,0.0016,0.0036,-0.0048,-0.0111,-0.0116,-0.0137,-0.0178,-0.0207,-0.0194,-0.0332,-0.0187,-0.0187,-0.0187,0,0.0269,0.0292,0.033,0.0337,0.0351,0.0369,0.0378,0.0379,0.0401,0.0378,0.0391,0.0313,0.0289,0.0175,0.0046,0.0029,-0.0076,-0.0119,-0.0202,-0.0204,-0.021,-0.0212,-0.0337,-0.02,-0.02,-0.02,-0.02,0,0.0318,0.0346,0.0358,0.0382,0.0434,0.0424,0.048,0.0476,0.0493,0.0533,0.0452,0.0468,0.0301,0.022,0.0081,-0.0057,-0.0052,-0.0188,-0.0218,-0.0189,-0.0187,-0.0333,-0.0429,-0.0203,-0.0202,-0.0202,-0.0201,0,0.0366,0.0374,0.042,0.0447,0.0463,0.0502,0.0556,0.0596,0.0599,0.0649,0.0647,0.0589,0.0486,0.0315,0.0138,0.0006,-0.0225,-0.0197,-0.015,-0.0173,-0.0382,-0.0475,-0.0645,-0.0714,-0.0304,-0.0305,-0.0305,0,0.0393,0.0425,0.0476,0.0514,0.053,0.0585,0.0633,0.0653,0.0705,0.0732,0.0768,0.069,0.0663,0.0411,0.0164,-0.0073,-0.0233,-0.0219,-0.025,-0.0381,-0.0508,-0.0578,-0.0629,-0.0244,-0.0244,-0.0243,-0.0243,0,0.0448,0.0467,0.0505,0.0586,0.0643,0.0709,0.0777,0.0839,0.0868,0.0923,0.0977,0.0961,0.0727,0.0521,0.0194,0.0016,-0.0317,-0.0223,-0.0373,-0.0478,-0.0549,-0.0632,-0.0216,-0.0242,-0.0242,-0.0242,-0.0242,-0.0242,0.0491,0.0528,0.0585,0.0659,0.073,0.0824,0.0891,0.0978,0.1083,0.1162,0.1138,0.1149,0.0834,0.041,0.0152,-0.0289,-0.0323,-0.0428,-0.0532,-0.0593,-0.065,-0.0226,-0.0274,-0.0275,-0.0275,-0.0275,-0.0275,0,0.054,0.0581,0.0654,0.0743,0.0827,0.0856,0.0981,0.1059,0.1196,0.1277,0.1328,0.12,0.0815,0.0394,-0.0188,-0.0521,-0.0658,-0.0718,-0.0818,-0.0858,-0.0486,-0.0472,-0.0547,-0.0547,-0.0546,-0.0546,-0.0546,-0.0546,0.0568,0.064,0.0673,0.081,0.0875,0.0989,0.1065,0.1191,0.1287,0.1399,0.1424,0.1409,0.1119,0.0081,-0.0659,-0.0849,-0.1084,-0.1143,-0.128,-0.1031,-0.1012,-0.0994,-0.1002,-0.1186,-0.1187,-0.1585,-0.1589,-0.1592]}],[{"header":{"parameterUnit":"m.s-1","parameterCategory":2,"la1":30.2991,"la2":30.254,"lo1":-89.0895,"lo2":-89.0444,"dy":0.0017,"dx":0.0017,"nx":28,"ny":28,"refTime":"2023-11-12T09:00:00:Z","depth":"2","parameterNumber":2,"parameterNumberName":"U-component_of_CURRENTS"},"data":[0,0,0,0,0,0,0,0,0,0,0,0,0,0,0,0,0,0,0,0,0,0,0,0,0,0,0,0,0,0,0,0,0,0,0,0,0,0,0,0,0,0,0,0,0,0,0,0,0,0,0,0,0,0,0,0,0,0,0.2587,0.2587,0,0.2588,0.2588,0.2588,0.2585,0.2585,0.2585,0.2585,0.2581,0.258,0.258,0,0,0,0,0,0,0,0,0,0,0,0,0,0.2573,0.2574,0.2586,0.2587,0.2587,0.2588,0.2588,0.2588,0.2585,0.2585,0.2585,0.2585,0.2581,0.258,0.258,0,0,0,0,0,0,0,0,0,0,0,0,0,0.2576,0.2574,0.2586,0.2587,0.2587,0.2588,0.2588,0.2587,0.2585,0.2585,0.2585,0.2585,0.2581,0.258,0.258,0.2577,0,0,0.2579,0.2579,0,0,0,0,0,0,0,0,0.2576,0.2576,0.2587,0.2587,0.2587,0.2588,0.2582,0.2584,0.2585,0.2584,0.2585,0.2585,0.2583,0.2583,0.2581,0.2577,0.2577,0.2579,0.2579,0.2579,0.2579,0,0,0,0,0,0,0,0.2575,0.2576,0.2585,0.2587,0.2587,0.2584,0.2584,0.2582,0.2582,0.2584,0.2584,0.2587,0.2583,0.2581,0.2581,0.2577,0.2579,0.2579,0.2579,0.2579,0.2617,0.2618,0,0,0,0,0,0,0.2579,0.2576,0.2585,0.2586,0.2583,0.2584,0.2585,0.2586,0.2582,0.2582,0.2587,0.2587,0.2581,0.2581,0.258,0.2616,0.2579,0.2579,0.2579,0.2616,0.2618,0.2619,0,0,0,0,0,0,0.2579,0.258,0.2585,0.2582,0.2583,0.2585,0.2586,0.2586,0.2596,0.2584,0.2584,0.2598,0.2581,0.2581,0.2593,0.2614,0.2579,0.2579,0.2615,0.2617,0.2618,0.2662,0,0,0,0,0,0,0.2578,0.258,0.2583,0.2582,0.2583,0.2599,0.2586,0.2586,0.2597,0.2597,0.2594,0.2593,0.2581,0.2593,0.2592,0.2613,0.2578,0.2613,0.2616,0.2618,0.2659,0.2665,0.267,0,0,0,0,0,0.2578,0.2583,0.2584,0.2585,0.2588,0.26,0.26,0.26,0.2598,0.2608,0.2606,0.2593,0.2607,0.2594,0.2593,0.2614,0.2612,0.2615,0.2617,0.2656,0.2664,0.267,0,0,0,0,0,0,0.2576,0.2583,0.2584,0.259,0.2601,0.26,0.2608,0.2609,0.2614,0.2616,0.2604,0.2603,0.2624,0.2614,0.26,0.2633,0.2609,0.2612,0.264,0.2646,0.2652,0.2662,0.2578,0,0,0,0,0,0.2578,0.2586,0.2593,0.26,0.2608,0.2611,0.2616,0.2619,0.2623,0.2626,0.2622,0.2623,0.2632,0.2635,0.2638,0.2651,0.266,0.2667,0.2672,0.2677,0.2686,0.272,0.273,0.2627,0.2627,0.2627,0,0,0.2578,0.2585,0.2588,0.2601,0.2608,0.2621,0.2614,0.263,0.2643,0.2624,0.264,0.2643,0.2642,0.266,0.2669,0.2654,0.2712,0.268,0.2684,0.2691,0.2724,0.2734,0.2743,0.2629,0.2629,0.2629,0,0,0.2583,0.2592,0.26,0.2612,0.263,0.2636,0.2645,0.2655,0.2664,0.2679,0.2675,0.2694,0.2695,0.2704,0.2708,0.2747,0.2742,0.2748,0.278,0.2813,0.2822,0.283,0.2858,0.2867,0.2747,0.2747,0.2747,0,0.2584,0.2596,0.2606,0.2618,0.2629,0.2646,0.266,0.2673,0.2684,0.2698,0.2691,0.272,0.2719,0.2751,0.2767,0.276,0.2776,0.2753,0.2821,0.2829,0.2836,0.2862,0.2873,0.275,0.2749,0.2749,0.2749,0,0.2591,0.2607,0.2617,0.2638,0.265,0.2671,0.2689,0.2709,0.2722,0.2734,0.2773,0.2778,0.2797,0.2802,0.2795,0.2848,0.2842,0.2826,0.2803,0.2849,0.2874,0.2884,0.2753,0.2752,0.2752,0.2751,0,0,0.2576,0.2616,0.2618,0.2634,0.2665,0.2675,0.2707,0.2742,0.2774,0.2789,0.283,0.2851,0.2863,0.2869,0.287,0.2898,0.2963,0.2887,0.2888,0.2914,0.3039,0.3006,0.3014,0.2959,0.2961,0.2963,0.3038,0,0.2583,0.2608,0.2627,0.2657,0.2673,0.2702,0.2732,0.2764,0.28,0.2844,0.2867,0.2907,0.2886,0.2909,0.2934,0.2963,0.2991,0.2944,0.2992,0.2994,0.2958,0.3025,0.2769,0.2812,0.3047,0.3049,0.305,0,0.2576,0.2599,0.2624,0.2673,0.2684,0.2704,0.2762,0.2797,0.2864,0.2896,0.294,0.2962,0.3015,0.2989,0.3057,0.3029,0.3041,0.3054,0.3057,0.3018,0.298,0.2804,0.2821,0.3067,0.3065,0.3064,0.3063,0,0.2544,0.2594,0.2616,0.2629,0.2685,0.2706,0.2744,0.2808,0.2848,0.294,0.2984,0.3038,0.3084,0.3107,0.3133,0.3105,0.3206,0.3165,0.3144,0.3141,0.2929,0.2905,0.3213,0.3213,0.3213,0.3212,0.3212,0,0.2532,0.255,0.2605,0.2613,0.2649,0.2696,0.275,0.2801,0.2884,0.2933,0.3012,0.3058,0.3119,0.3173,0.3173,0.3201,0.3238,0.3171,0.3167,0.2938,0.2915,0.3133,0.3123,0.3215,0.3215,0.3214,0.3214,0,0.2485,0.2523,0.2548,0.261,0.2629,0.2652,0.2735,0.2776,0.2878,0.2947,0.2979,0.3096,0.3176,0.3228,0.3289,0.3261,0.3284,0.3278,0.301,0.2974,0.3183,0.3174,0.3263,0.3263,0.3262,0.3262,0.3262,0,0.2461,0.2471,0.2525,0.2538,0.2565,0.2616,0.2646,0.2747,0.2796,0.2947,0.2971,0.31,0.3162,0.327,0.3249,0.327,0.3302,0.3036,0.2934,0.3206,0.3193,0.3184,0.3176,0.2667,0.2662,0.2658,0.2654,0,0.2418,0.2437,0.2459,0.2483,0.2509,0.2543,0.2604,0.2634,0.2754,0.2826,0.2928,0.3003,0.3127,0.3043,0.3096,0.306,0.3014,0.2954,0.331,0.2705,0.2652,0.2637,0.2647,0.2617,0.2621,0.2624,0.2626,0.2627,0.2381,0.2379,0.2404,0.2419,0.2443,0.2455,0.2453,0.2519,0.2571,0.2632,0.2777,0.28,0.2846,0.2805,0.2729,0.2672,0.2877,0.272,0.2728,0.2742,0.2671,0.2622,0.2568,0.2571,0.2574,0.2576,0.2578,0,0.2321,0.2327,0.234,0.234,0.232,0.2371,0.2402,0.2368,0.237,0.2448,0.2511,0.2343,0.231,0.2351,0.222,0.2245,0.2182,0.2138,0.201,0.2051,0.2087,0.1976,0.1692,0.1688,0.1685,0.1683,0,0,0.229,0.2267,0.2267,0.2209,0.2212,0.215,0.2143,0.2104,0.2119,0.2074,0.2053,0.2207,0.23,0.1952,0.1922,0.1777,0.1892,0.1713,0.2433,0.2324,0.2355,0.2443,0.2325,0,0,0,0,0]},{"header":{"parameterUnit":"m.s-1","parameterCategory":2,"la1":30.2991,"la2":30.254,"lo1":-89.0895,"lo2":-89.0444,"dy":0.0017,"dx":0.0017,"nx":28,"ny":28,"refTime":"2023-11-12T09:00:00:Z","depth":"2","parameterNumber":3,"parameterNumberName":"V-component_of_CURRENTS"},"data":[0,0,0,0,0,0,0,0,0,0,0,0,0,0,0,0,0,0,0,0,0,0,0,0,0,0,0,0,0,0,0,0,0,0,0,0,0,0,0,0,0,0,0,0,0,0,0,0,0,0,0,0,0,0,0,0,0,0,0.0094,0.0094,0,0.0041,0.004,0.004,0.0001,0.0001,0.0001,0.0001,-0.0076,-0.0077,-0.0079,0,0,0,0,0,0,0,0,0,0,0,0,0,0.0127,0.0127,0.0094,0.0094,0.0093,0.0041,0.004,0.0039,0.0001,0.0001,0.0001,0.0,-0.0075,-0.0077,-0.0079,0,0,0,0,0,0,0,0,0,0,0,0,0,0.0096,0.0127,0.0094,0.0068,0.0066,0.0041,0.004,0.0039,0.0001,0.0001,0.0001,0.0,-0.0074,-0.0077,-0.008,-0.009,0,0,-0.0088,-0.0089,0,0,0,0,0,0,0,0,0.0098,0.0095,0.0073,0.007,0.0067,0.0028,0.0024,-0.0005,0.0001,0.0025,0.0001,0.0,-0.0042,-0.0048,-0.0058,-0.0093,-0.0097,-0.0088,-0.009,-0.0091,-0.0092,0,0,0,0,0,0,0,0.01,0.0097,0.0072,0.0072,0.0069,0.0047,0.0043,0.0018,-0.0007,0.0023,0.002,0.0016,-0.0044,-0.0055,-0.006,-0.0098,-0.0088,-0.0091,-0.0092,-0.0093,-0.0145,-0.0145,0,0,0,0,0,0,0.0111,0.0099,0.0074,0.0071,0.0083,0.0047,0.0042,0.004,-0.0007,-0.0014,0.0016,0.0014,-0.005,-0.0057,-0.0063,-0.007,-0.0091,-0.0094,-0.0095,-0.0146,-0.0145,-0.0145,0,0,0,0,0,0,0.0112,0.011,0.0076,0.0084,0.0079,0.0047,0.0045,0.0039,0.0029,-0.0011,-0.0019,0.0012,-0.0051,-0.0059,-0.008,-0.0073,-0.0095,-0.0097,-0.0146,-0.0146,-0.0145,-0.0089,0,0,0,0,0,0,0.0113,0.011,0.0112,0.0085,0.0079,0.0067,0.0046,0.0039,0.0027,0.0024,-0.0017,-0.0025,-0.0052,-0.0076,-0.0083,-0.0077,-0.01,-0.0146,-0.0146,-0.0145,-0.0091,-0.0086,-0.0083,0,0,0,0,0,0.0115,0.0123,0.0113,0.011,0.0083,0.0067,0.0062,0.0037,0.0027,0.0026,-0.0001,-0.0024,-0.0078,-0.0078,-0.0086,-0.0081,-0.0147,-0.0146,-0.0145,-0.0093,-0.0087,-0.0083,0,0,0,0,0,0,0.0137,0.0119,0.0107,0.0109,0.0091,0.0061,0.0059,0.0042,0.002,0.0018,-0.0021,-0.003,-0.0046,-0.0071,-0.007,-0.0095,-0.0116,-0.0117,-0.0073,-0.0068,-0.0064,-0.0045,-0.0102,0,0,0,0,0,0.0144,0.0145,0.0121,0.0122,0.0116,0.0088,0.0079,0.0064,0.0041,0.003,0.0001,-0.0028,-0.0051,-0.0065,-0.009,-0.0103,-0.0128,-0.0106,-0.0102,-0.0098,-0.0089,-0.0119,-0.0116,-0.0143,-0.0143,-0.0143,0,0,0.0152,0.0142,0.0142,0.0127,0.0111,0.0113,0.0082,0.0074,0.0074,0.0026,0.0016,-0.0015,-0.0051,-0.0065,-0.0075,-0.0085,-0.0104,-0.0097,-0.0094,-0.0086,-0.0118,-0.0115,-0.0113,-0.0143,-0.0143,-0.0143,0,0,0.0173,0.0162,0.0171,0.0163,0.0147,0.0131,0.0132,0.0105,0.0092,0.0077,0.0046,0.0022,-0.0018,-0.0038,-0.0054,-0.0042,-0.0081,-0.0053,-0.0018,-0.0048,-0.0046,-0.0044,-0.0074,-0.0075,-0.0052,-0.0052,-0.0052,0,0.0184,0.0194,0.0171,0.018,0.0181,0.0145,0.0159,0.0141,0.011,0.0106,0.0081,0.0031,-0.0002,-0.0012,-0.001,-0.0031,-0.0056,-0.0033,-0.0041,-0.004,-0.004,-0.0071,-0.0073,-0.0049,-0.0049,-0.0049,-0.005,0,0.0215,0.0222,0.0228,0.023,0.0227,0.0233,0.0211,0.0203,0.018,0.0161,0.0139,0.0089,0.0063,0.0044,0.0019,0.001,-0.0011,-0.0032,-0.0051,-0.0033,-0.0068,-0.0071,-0.0045,-0.0046,-0.0047,-0.0047,0,0,0.0244,0.025,0.0252,0.0265,0.0257,0.0259,0.0264,0.0259,0.027,0.0222,0.0227,0.0175,0.0145,0.0125,0.0085,0.0055,0.0032,0.0018,0.0015,-0.0006,-0.0034,-0.0043,-0.0048,0.0009,0.0008,0.0008,-0.0061,0,0.0276,0.0309,0.0301,0.0332,0.035,0.0329,0.034,0.033,0.0312,0.0306,0.0249,0.0234,0.0177,0.0164,0.0126,0.0061,0.0026,0.0053,-0.0053,-0.0056,-0.0061,-0.0051,-0.002,-0.0078,-0.0064,-0.0065,-0.0065,0,0.0315,0.0332,0.0373,0.0393,0.0399,0.0413,0.0432,0.0436,0.0419,0.0403,0.0373,0.0327,0.028,0.0226,0.012,0.0139,0.006,0.0,-0.0004,-0.0032,-0.0071,-0.0094,-0.0085,-0.0072,-0.0071,-0.0071,-0.007,0,0.036,0.0384,0.0421,0.0428,0.0445,0.0461,0.047,0.0471,0.0493,0.0469,0.0479,0.0405,0.0379,0.027,0.0144,0.0131,0.0025,-0.0011,-0.0096,-0.0098,-0.0101,-0.0102,-0.0088,-0.0088,-0.0088,-0.0088,-0.0088,0,0.0404,0.0431,0.0446,0.0468,0.0518,0.0511,0.0564,0.056,0.0576,0.0614,0.0536,0.0548,0.0388,0.0308,0.0176,0.0039,0.0047,-0.0084,-0.0113,-0.0081,-0.008,-0.0098,-0.0098,-0.0091,-0.009,-0.0089,-0.0089,0,0.0446,0.0455,0.0501,0.0529,0.0544,0.0581,0.0635,0.0673,0.0675,0.0723,0.0719,0.066,0.0555,0.0391,0.022,0.0094,-0.0047,-0.0102,-0.0053,-0.0075,-0.0163,-0.016,-0.0207,-0.0207,-0.0208,-0.0209,-0.0209,0,0.0471,0.0501,0.0553,0.0589,0.0604,0.0658,0.0704,0.0725,0.0776,0.0798,0.083,0.075,0.0715,0.0465,0.023,0.0002,-0.0039,-0.0131,-0.0155,-0.015,-0.0174,-0.0169,-0.0165,-0.0143,-0.0143,-0.0143,-0.0143,0,0.052,0.0539,0.0576,0.0654,0.0709,0.0775,0.0841,0.0899,0.0929,0.0975,0.1018,0.0994,0.0763,0.0551,0.0236,0.0078,-0.0094,-0.0137,-0.0141,-0.0112,-0.0094,-0.0116,-0.0113,-0.0142,-0.0142,-0.0142,-0.0142,-0.0142,0.0559,0.0595,0.065,0.0721,0.0791,0.0882,0.0947,0.1026,0.1123,0.118,0.1154,0.1114,0.0869,0.0477,0.021,-0.0083,-0.0075,-0.0187,-0.0186,-0.0185,-0.016,-0.0143,-0.0196,-0.0196,-0.0196,-0.0197,-0.0197,0,0.0604,0.0643,0.0714,0.0801,0.0881,0.091,0.1031,0.1098,0.1219,0.1256,0.1285,0.1054,0.0822,0.0526,0.0107,-0.0139,-0.0162,-0.023,-0.0199,-0.0197,-0.0196,-0.0171,-0.0211,-0.0211,-0.0212,-0.0213,0,0,0.063,0.0698,0.0731,0.0862,0.0925,0.1034,0.1107,0.1208,0.1267,0.1315,0.1285,0.1228,0.0897,0.0589,0.0264,0.0023,-0.0039,-0.0031,0.0009,0.0087,0.009,-0.0138,-0.0093,0,0,0,0,0]}],[{"header":{"parameterUnit":"m.s-1","parameterCategory":2,"la1":30.2991,"la2":30.254,"lo1":-89.0895,"lo2":-89.0444,"dy":0.0017,"dx":0.0017,"nx":28,"ny":28,"refTime":"2023-11-12T09:00:00:Z","depth":"4","parameterNumber":2,"parameterNumberName":"U-component_of_CURRENTS"},"data":[0,0,0,0,0,0,0,0,0,0,0,0,0,0,0,0,0,0,0,0,0,0,0,0,0,0,0,0,0,0,0,0,0,0,0,0,0,0,0,0,0,0,0,0,0,0,0,0,0,0,0,0,0,0,0,0,0,0,0.1684,0.1684,0,0.1732,0.1733,0.1733,0.1785,0.1786,0.1787,0.1787,0.1853,0.1854,0.1855,0,0,0,0,0,0,0,0,0,0,0,0,0,0.1627,0.1628,0.1684,0.1684,0.1685,0.1732,0.1733,0.1733,0.1785,0.1786,0.1787,0.1788,0.1853,0.1854,0.1855,0,0,0,0,0,0,0,0,0,0,0,0,0,0.166,0.1628,0.1684,0.1718,0.1721,0.1732,0.1733,0.1733,0.1785,0.1786,0.1787,0.1788,0.1853,0.1854,0.1855,0.1838,0,0,0.186,0.186,0,0,0,0,0,0,0,0,0.1658,0.1662,0.1712,0.1715,0.172,0.1755,0.1737,0.177,0.1784,0.1759,0.1787,0.1789,0.1822,0.1826,0.183,0.1841,0.1844,0.186,0.1861,0.1861,0.1862,0,0,0,0,0,0,0,0.1655,0.166,0.1701,0.1713,0.1717,0.1728,0.1734,0.1743,0.1782,0.1761,0.1765,0.1773,0.1824,0.1828,0.1832,0.1845,0.186,0.1861,0.1862,0.1863,0.196,0.1961,0,0,0,0,0,0,0.1652,0.1658,0.17,0.1703,0.1693,0.1728,0.1735,0.1741,0.1781,0.1789,0.1772,0.1775,0.1825,0.183,0.1835,0.1918,0.1861,0.1863,0.1864,0.1958,0.196,0.1962,0,0,0,0,0,0,0.165,0.1655,0.1698,0.1683,0.1689,0.1728,0.1735,0.1742,0.1785,0.179,0.1798,0.1813,0.1827,0.1833,0.1879,0.1917,0.1863,0.1865,0.1956,0.1959,0.1961,0.202,0,0,0,0,0,0,0.1648,0.1654,0.1675,0.1682,0.169,0.173,0.1734,0.1742,0.1786,0.1792,0.1827,0.1832,0.1828,0.1877,0.1881,0.1918,0.1866,0.1954,0.1957,0.196,0.2016,0.2024,0.2031,0,0,0,0,0,0.1646,0.1663,0.1675,0.1682,0.1711,0.1732,0.1737,0.1767,0.1787,0.1811,0.1839,0.1833,0.1901,0.188,0.1883,0.1922,0.1952,0.1956,0.196,0.2012,0.2022,0.2031,0,0,0,0,0,0,0.1651,0.167,0.1684,0.1708,0.1732,0.1742,0.1771,0.1788,0.1827,0.1847,0.1851,0.1858,0.1914,0.191,0.1887,0.1961,0.1927,0.1932,0.1966,0.1975,0.1983,0.1986,0.1867,0,0,0,0,0,0.1659,0.1681,0.1698,0.1723,0.1738,0.1762,0.1782,0.1802,0.1828,0.1849,0.1872,0.19,0.1925,0.1946,0.1963,0.2,0.2001,0.2029,0.2037,0.2044,0.205,0.2082,0.2093,0.1975,0.1975,0.1975,0,0,0.1668,0.1684,0.1698,0.1727,0.175,0.1773,0.1779,0.182,0.185,0.1848,0.191,0.193,0.1942,0.1986,0.2011,0.1993,0.208,0.2049,0.2054,0.2056,0.2087,0.2098,0.2109,0.1977,0.1977,0.1977,0,0,0.1684,0.1714,0.1734,0.1756,0.1796,0.1809,0.183,0.1863,0.1896,0.1945,0.1956,0.2002,0.2038,0.2054,0.2065,0.2126,0.2121,0.2141,0.2182,0.2214,0.2224,0.2232,0.2254,0.2264,0.2144,0.2144,0.2144,0,0.17,0.1723,0.1746,0.1768,0.1793,0.183,0.1857,0.1888,0.1936,0.1965,0.1978,0.2053,0.2068,0.2116,0.2144,0.2144,0.2159,0.2144,0.2224,0.2232,0.224,0.226,0.227,0.2147,0.2147,0.2146,0.2146,0,0.1714,0.175,0.1768,0.1807,0.1836,0.1872,0.1908,0.1954,0.2,0.2026,0.2102,0.2127,0.2171,0.2188,0.2187,0.2254,0.2247,0.2229,0.2197,0.2255,0.2273,0.2282,0.2152,0.2151,0.215,0.2149,0,0,0.1703,0.1767,0.1777,0.1807,0.1864,0.1885,0.1945,0.1999,0.2051,0.2106,0.2168,0.2222,0.2249,0.2263,0.2277,0.2309,0.2381,0.2302,0.2302,0.2319,0.2455,0.2303,0.2298,0.2382,0.2384,0.2386,0.2447,0,0.1715,0.1761,0.1793,0.185,0.1877,0.1931,0.198,0.2037,0.2099,0.2168,0.2212,0.2279,0.2273,0.2315,0.2346,0.2377,0.2409,0.2366,0.2401,0.2402,0.2254,0.2304,0.2392,0.2454,0.2456,0.2458,0.2459,0,0.1709,0.1746,0.18,0.1875,0.1895,0.1939,0.2031,0.2083,0.2176,0.2228,0.2299,0.2338,0.2409,0.2394,0.2468,0.2446,0.2461,0.2473,0.2475,0.2317,0.2266,0.2384,0.2476,0.2475,0.2474,0.2472,0.2471,0,0.167,0.1749,0.1797,0.1821,0.1908,0.1957,0.2015,0.2107,0.2161,0.2283,0.2337,0.2414,0.2474,0.2505,0.2537,0.2519,0.2605,0.2574,0.2447,0.2437,0.253,0.252,0.2623,0.2623,0.2623,0.2623,0.2623,0,0.1645,0.1689,0.1792,0.1814,0.1882,0.1953,0.204,0.211,0.2215,0.2271,0.2374,0.2419,0.2511,0.2561,0.2568,0.2534,0.263,0.2461,0.2443,0.2554,0.2546,0.2537,0.2526,0.2625,0.2625,0.2624,0.2624,0,0.1583,0.1652,0.1712,0.1823,0.1862,0.1913,0.2039,0.2091,0.2214,0.2292,0.2335,0.2452,0.2514,0.2577,0.2638,0.2562,0.2554,0.2519,0.2648,0.2635,0.2358,0.235,0.2373,0.2368,0.2364,0.2361,0.2358,0,0.155,0.1578,0.1702,0.1741,0.1799,0.1892,0.1944,0.2073,0.2123,0.2277,0.2292,0.2412,0.2469,0.2434,0.2512,0.2518,0.2488,0.2468,0.2395,0.2353,0.2334,0.2332,0.233,0.2351,0.235,0.2349,0.2348,0,0.1487,0.155,0.1601,0.1678,0.1746,0.1806,0.1896,0.1915,0.2051,0.2177,0.2197,0.2226,0.2292,0.2328,0.2363,0.2357,0.2468,0.2424,0.2432,0.2362,0.2326,0.2311,0.2314,0.2333,0.2336,0.2337,0.2338,0,0.1448,0.1465,0.1542,0.1596,0.1672,0.1692,0.1755,0.1803,0.1861,0.2022,0.2019,0.2142,0.2259,0.2244,0.2266,0.2261,0.2219,0.2135,0.2157,0.2174,0.2078,0.2002,0.1898,0,0,0,0,0,0.1396,0.1402,0.1449,0.1491,0.156,0.1604,0.1703,0.1768,0.189,0.1852,0.1929,0.1975,0.2005,0.2069,0.2024,0.2185,0.2237,0.2122,0.2154,0.2254,0.2271,0.2176,0,0,0,0,0,0,0.1358,0.1401,0.1411,0.1391,0.1402,0.1457,0.1516,0.1603,0.1592,0.1726,0.1756,0.1855,0.1923,0.2012,0.1986,0.2006,0.1984,0.2202,0.2196,0.2245,0.226,0.2273,0.2182,0,0,0,0,0]},{"header":{"parameterUnit":"m.s-1","parameterCategory":2,"la1":30.2991,"la2":30.254,"lo1":-89.0895,"lo2":-89.0444,"dy":0.0017,"dx":0.0017,"nx":28,"ny":28,"refTime":"2023-11-12T09:00:00:Z","depth":"4","parameterNumber":3,"parameterNumberName":"V-component_of_CURRENTS"},"data":[0,0,0,0,0,0,0,0,0,0,0,0,0,0,0,0,0,0,0,0,0,0,0,0,0,0,0,0,0,0,0,0,0,0,0,0,0,0,0,0,0,0,0,0,0,0,0,0,0,0,0,0,0,0,0,0,0,0,0.0174,0.0173,0,0.0141,0.014,0.014,0.0118,0.0118,0.0118,0.0118,0.007,0.0069,0.0068,0,0,0,0,0,0,0,0,0,0,0,0,0,0.0189,0.0189,0.0174,0.0173,0.0173,0.0141,0.014,0.014,0.0118,0.0118,0.0118,0.0118,0.007,0.0069,0.0067,0,0,0,0,0,0,0,0,0,0,0,0,0,0.0171,0.0189,0.0174,0.0159,0.0158,0.0141,0.014,0.0139,0.0118,0.0118,0.0118,0.0118,0.0071,0.0069,0.0067,0.0058,0,0,0.0062,0.0061,0,0,0,0,0,0,0,0,0.0172,0.017,0.0162,0.016,0.0158,0.0134,0.0128,0.0112,0.0118,0.0132,0.0118,0.0118,0.0091,0.0087,0.008,0.0055,0.0053,0.0061,0.006,0.006,0.0059,0,0,0,0,0,0,0,0.0173,0.0171,0.016,0.0161,0.0159,0.0144,0.0141,0.0124,0.0112,0.0131,0.013,0.0127,0.0089,0.0082,0.0079,0.0053,0.0061,0.006,0.0059,0.0058,0.0021,0.0021,0,0,0,0,0,0,0.0181,0.0173,0.0161,0.0159,0.0166,0.0144,0.0141,0.0141,0.0112,0.0108,0.0127,0.0126,0.0085,0.0081,0.0077,0.0076,0.006,0.0058,0.0057,0.0021,0.0021,0.0021,0,0,0,0,0,0,0.0181,0.018,0.0162,0.0165,0.0162,0.0144,0.0144,0.0141,0.0137,0.0109,0.0105,0.0127,0.0085,0.008,0.0068,0.0074,0.0057,0.0055,0.0021,0.0021,0.0021,0.0066,0,0,0,0,0,0,0.0182,0.018,0.0184,0.0166,0.0162,0.0157,0.0144,0.014,0.0135,0.0134,0.0108,0.0103,0.0085,0.0071,0.0066,0.0071,0.0054,0.0021,0.0021,0.0021,0.0065,0.0068,0.0071,0,0,0,0,0,0.0182,0.019,0.0185,0.0183,0.0168,0.0158,0.0154,0.014,0.0136,0.0136,0.012,0.0104,0.0069,0.0069,0.0064,0.0068,0.0021,0.0021,0.0021,0.0063,0.0067,0.0071,0,0,0,0,0,0,0.0198,0.0188,0.0182,0.0186,0.0175,0.0154,0.0155,0.0145,0.0132,0.0132,0.0106,0.01,0.0092,0.0073,0.0075,0.0058,0.0042,0.0041,0.0075,0.0079,0.0082,0.0096,0.0052,0,0,0,0,0,0.0204,0.0208,0.0192,0.0196,0.0193,0.0175,0.017,0.0161,0.0146,0.0141,0.0122,0.0102,0.0087,0.0079,0.0061,0.0053,0.0031,0.0051,0.0054,0.0057,0.0065,0.0036,0.0037,0.0022,0.0022,0.0022,0,0,0.0211,0.0206,0.0208,0.02,0.0191,0.0193,0.0172,0.0168,0.017,0.0137,0.0135,0.0113,0.0088,0.0079,0.0073,0.0065,0.0049,0.0058,0.006,0.0066,0.0036,0.0038,0.0039,0.0023,0.0023,0.0023,0,0,0.0227,0.0223,0.0232,0.0227,0.0219,0.0209,0.021,0.0193,0.0186,0.0178,0.0157,0.0141,0.0115,0.01,0.0089,0.0098,0.0067,0.009,0.0117,0.0089,0.0091,0.0091,0.0064,0.0061,0.0091,0.0091,0.0091,0,0.0236,0.0246,0.0232,0.024,0.0243,0.022,0.0232,0.022,0.0201,0.02,0.0183,0.0149,0.0126,0.0119,0.0121,0.0106,0.0084,0.0107,0.0094,0.0094,0.0094,0.0066,0.0063,0.0094,0.0093,0.0093,0.0093,0,0.0258,0.0268,0.0274,0.0279,0.0279,0.0285,0.0271,0.0268,0.0255,0.0243,0.0229,0.0193,0.0175,0.0161,0.0144,0.0136,0.0118,0.0102,0.0087,0.0099,0.0067,0.0064,0.0097,0.0096,0.0095,0.0095,0,0,0.0276,0.0288,0.0291,0.0304,0.0302,0.0306,0.0313,0.0312,0.0323,0.029,0.0295,0.0259,0.0237,0.0223,0.0194,0.0168,0.0145,0.0139,0.0137,0.0117,0.0083,0.007,0.0064,0.0126,0.0126,0.0125,0.006,0,0.0298,0.0327,0.0325,0.0354,0.0369,0.0358,0.0369,0.0366,0.0356,0.0353,0.0311,0.0303,0.0262,0.0255,0.0222,0.0168,0.0137,0.0164,0.007,0.0068,0.0059,0.006,0.0124,0.0057,0.0056,0.0056,0.0055,0,0.0323,0.034,0.0375,0.0399,0.0406,0.042,0.0441,0.0448,0.0438,0.0429,0.0407,0.0374,0.0337,0.0297,0.0206,0.0225,0.0161,0.0111,0.0107,0.0079,0.0048,0.0042,0.0048,0.0048,0.0049,0.0049,0.005,0,0.0348,0.0376,0.0408,0.0417,0.0439,0.0456,0.047,0.0475,0.0495,0.0482,0.0488,0.0431,0.0409,0.0321,0.0217,0.0212,0.0111,0.0089,0.0015,0.0012,0.0024,0.0024,0.0022,0.0023,0.0023,0.0023,0.0023,0,0.0373,0.04,0.0426,0.0445,0.049,0.0493,0.0541,0.0543,0.056,0.0588,0.0534,0.0533,0.0414,0.0341,0.0237,0.0117,0.0123,0.0022,-0.0004,0.0043,0.0046,0.0021,0.0021,0.002,0.0021,0.0021,0.0022,0,0.0392,0.041,0.0452,0.0487,0.0506,0.054,0.0597,0.0629,0.0636,0.067,0.067,0.0614,0.0518,0.039,0.0247,0.0152,0.0033,-0.0014,0.0051,0.003,-0.0054,-0.005,-0.0102,-0.0103,-0.0103,-0.0104,-0.0105,0,0.0403,0.0428,0.0488,0.0522,0.0542,0.0597,0.0638,0.0668,0.0704,0.0718,0.0732,0.0661,0.0602,0.0398,0.0254,0.0052,0.0018,-0.005,-0.0059,-0.0046,-0.0066,-0.0061,-0.0057,-0.0106,-0.0106,-0.0106,-0.0107,0,0.0425,0.045,0.0485,0.0557,0.0611,0.0673,0.073,0.0763,0.0794,0.0802,0.0784,0.068,0.0572,0.0405,0.0249,0.0102,-0.001,-0.006,-0.0059,-0.0068,-0.0052,-0.007,-0.0065,-0.0109,-0.0109,-0.0109,-0.0109,0,0.0445,0.0473,0.0526,0.0587,0.0659,0.0723,0.0754,0.0791,0.0828,0.0834,0.0827,0.0709,0.0645,0.0431,0.0288,0.0142,0.0097,0.0035,0.003,0.0031,0.0083,0.0123,0.0101,0,0,0,0,0,0.0459,0.0491,0.055,0.0619,0.069,0.0733,0.0804,0.0828,0.0857,0.0851,0.0841,0.0739,0.0533,0.0451,0.0303,0.0258,0.0062,0.0076,-0.0013,-0.0125,-0.0122,-0.0085,0,0,0,0,0,0,0.0469,0.0523,0.0549,0.0635,0.0684,0.0767,0.0814,0.0834,0.0831,0.0836,0.0736,0.0687,0.0494,0.062,0.0297,0.0254,0.0171,-0.0015,-0.0019,-0.0127,-0.0124,-0.0121,-0.0082,0,0,0,0,0]}]]